BAW2233 EGKK-VTBS

Flight info

Callsign BAW2233
Flight time N/A
Altitude 33000
Route ODVIK Y311 DVR UL9 KONAN UL607 FERDI DCT REMBA DCT LIRSU DCT BANUX DCT BABEG DCT KONIN DCT ERKIR DCT KFT DCT PODET DCT ZINPE DCT ETIDA DCT EKSOL DCT UDROS UM859 KARDE UN644 ROLIN DCT FOQUS DCT LAGAS DCT DISKA M737 VERCA M747 BODKA P130 MAMED B449 RANAH L750 MERUN/N0500F350 G452 LKN R460 CEA DCT DOPID P646 PTN N895 BETNO G463 TARED DCT WILLA WILLA1C
Aircraft A35K/H-SDE2E3GHIJ3J4J5LM1ORWXY/LB1D1

Departure

Time N/A
Airport London Gatwick Airport (EGKK)

Arrival

Time 2026-05-01 09:08
Airport Suvarnabhumi Airport (VTBS)
Time Latitude Longitude Altitude Speed Heading
2026-05-01 08:29 15.53670 97.34252 32852 ft 539 kts 120°
2026-05-01 08:30 15.50207 97.41135 32860 ft 538 kts 120°
2026-05-01 08:30 15.46761 97.47976 32858 ft 537 kts 120°
2026-05-01 08:31 15.43297 97.54842 32859 ft 537 kts 120°
2026-05-01 08:31 15.40414 97.60550 32860 ft 537 kts 120°
2026-05-01 08:32 15.36945 97.67412 32858 ft 537 kts 120°
2026-05-01 08:32 15.33475 97.74270 32859 ft 536 kts 120°
2026-05-01 08:33 15.30012 97.81109 32862 ft 536 kts 120°
2026-05-01 08:33 15.26543 97.87952 32866 ft 536 kts 120°
2026-05-01 08:34 15.23094 97.94751 32865 ft 535 kts 120°
2026-05-01 08:34 15.19623 98.01584 32874 ft 535 kts 120°
2026-05-01 08:35 15.16156 98.08405 32870 ft 535 kts 120°
2026-05-01 08:35 15.12710 98.15179 32871 ft 534 kts 120°
2026-05-01 08:36 15.09249 98.21997 32873 ft 533 kts 120°
2026-05-01 08:36 15.05856 98.28817 32880 ft 533 kts 120°
2026-05-01 08:37 15.02462 98.35646 32882 ft 533 kts 120°
2026-05-01 08:37 14.99085 98.42431 32886 ft 532 kts 120°
2026-05-01 08:38 14.95691 98.49242 32892 ft 532 kts 120°
2026-05-01 08:38 14.92294 98.56051 32892 ft 532 kts 120°
2026-05-01 08:39 14.88895 98.62858 32893 ft 532 kts 120°
2026-05-01 08:39 14.85493 98.69668 32891 ft 532 kts 120°
2026-05-01 08:40 14.80413 98.79820 32886 ft 532 kts 120°
2026-05-01 08:40 14.77023 98.86589 32885 ft 523 kts 120°
2026-05-01 08:41 14.75372 98.89888 32878 ft 512 kts 120°
2026-05-01 08:41 14.73741 98.93141 32881 ft 509 kts 120°
2026-05-01 08:41 14.70481 98.99636 32870 ft 508 kts 120°
2026-05-01 08:42 14.67242 99.06084 32817 ft 505 kts 120°
2026-05-01 08:42 14.65631 99.09292 32249 ft 504 kts 120°
2026-05-01 08:42 14.64012 99.12510 31542 ft 506 kts 119°
2026-05-01 08:43 14.62388 99.15738 30934 ft 507 kts 119°
2026-05-01 08:43 14.60765 99.18965 30403 ft 506 kts 119°
2026-05-01 08:43 14.59223 99.22029 29908 ft 505 kts 119°
2026-05-01 08:43 14.57800 99.24855 29418 ft 503 kts 119°
2026-05-01 08:44 14.56192 99.28049 28938 ft 498 kts 119°
2026-05-01 08:44 14.54598 99.31211 28431 ft 495 kts 119°
2026-05-01 08:44 14.53016 99.34350 27959 ft 491 kts 119°
2026-05-01 08:44 14.51449 99.37457 27555 ft 485 kts 119°
2026-05-01 08:45 14.49896 99.40537 27098 ft 481 kts 119°
2026-05-01 08:45 14.48357 99.43586 26648 ft 477 kts 119°
2026-05-01 08:45 14.46851 99.46570 26215 ft 473 kts 119°
2026-05-01 08:45 14.45338 99.49566 25763 ft 469 kts 118°
2026-05-01 08:46 14.44072 99.52656 25306 ft 468 kts 106°
2026-05-01 08:46 14.43551 99.55952 24880 ft 465 kts 95°
2026-05-01 08:46 14.43348 99.59269 24439 ft 461 kts 94°
2026-05-01 08:46 14.43180 99.62560 24017 ft 458 kts 94°
2026-05-01 08:47 14.43001 99.65831 23571 ft 455 kts 94°
2026-05-01 08:47 14.42813 99.69080 23081 ft 452 kts 94°
2026-05-01 08:47 14.42617 99.72312 22571 ft 448 kts 94°
2026-05-01 08:47 14.42420 99.75505 22074 ft 445 kts 94°
2026-05-01 08:48 14.42220 99.78683 21583 ft 441 kts 94°
2026-05-01 08:48 14.42021 99.81831 21106 ft 438 kts 94°
2026-05-01 08:48 14.41825 99.84922 20642 ft 434 kts 94°
2026-05-01 08:48 14.41628 99.88020 20165 ft 431 kts 94°
2026-05-01 08:49 14.41431 99.91093 19725 ft 428 kts 95°
2026-05-01 08:49 14.41235 99.94152 19284 ft 424 kts 95°
2026-05-01 08:49 14.41040 99.97185 18841 ft 421 kts 95°
2026-05-01 08:49 14.40847 100.00180 18531 ft 415 kts 95°
2026-05-01 08:50 14.40659 100.03112 18343 ft 404 kts 95°
2026-05-01 08:50 14.40410 100.05966 18152 ft 394 kts 100°
2026-05-01 08:50 14.39837 100.08691 17947 ft 383 kts 105°
2026-05-01 08:50 14.39180 100.11321 17749 ft 374 kts 106°
2026-05-01 08:51 14.38526 100.13879 17560 ft 364 kts 106°
2026-05-01 08:51 14.37899 100.16349 17380 ft 355 kts 106°
2026-05-01 08:51 14.37283 100.18785 17123 ft 349 kts 106°
2026-05-01 08:51 14.36676 100.21195 16782 ft 345 kts 106°
2026-05-01 08:52 14.36075 100.23586 16425 ft 342 kts 106°
2026-05-01 08:52 14.35481 100.25953 16073 ft 340 kts 105°
2026-05-01 08:52 14.34891 100.28308 15717 ft 337 kts 106°
2026-05-01 08:52 14.34307 100.30640 15368 ft 335 kts 106°
2026-05-01 08:53 14.33726 100.32959 15019 ft 333 kts 106°
2026-05-01 08:53 14.33149 100.35261 14703 ft 329 kts 106°
2026-05-01 08:53 14.32580 100.37531 14457 ft 324 kts 106°
2026-05-01 08:53 14.32026 100.39740 14219 ft 322 kts 106°
2026-05-01 08:54 14.31466 100.41970 13998 ft 321 kts 106°
2026-05-01 08:54 14.30906 100.44197 13760 ft 320 kts 106°
2026-05-01 08:54 14.30350 100.46413 13505 ft 318 kts 106°
2026-05-01 08:54 14.29794 100.48625 13276 ft 317 kts 106°
2026-05-01 08:55 14.29239 100.50827 13049 ft 316 kts 106°
2026-05-01 08:55 14.28688 100.53020 12818 ft 315 kts 106°
2026-05-01 08:55 14.28138 100.55206 12586 ft 314 kts 106°
2026-05-01 08:55 14.27590 100.57382 12360 ft 313 kts 106°
2026-05-01 08:56 14.27052 100.59517 12139 ft 312 kts 106°
2026-05-01 08:56 14.26505 100.61676 11908 ft 310 kts 107°
2026-05-01 08:56 14.25689 100.63714 11697 ft 306 kts 124°
2026-05-01 08:56 14.24219 100.65271 11477 ft 302 kts 147°
2026-05-01 08:57 14.22372 100.66267 11118 ft 298 kts 160°
2026-05-01 08:57 14.20412 100.66951 10761 ft 297 kts 163°
2026-05-01 08:57 14.18442 100.67571 10411 ft 295 kts 164°
2026-05-01 08:57 14.16482 100.68183 10066 ft 294 kts 164°
2026-05-01 08:58 14.15189 100.68584 9836 ft 292 kts 164°
2026-05-01 08:58 14.13653 100.69062 9541 ft 291 kts 164°
2026-05-01 08:58 14.11714 100.69665 9187 ft 290 kts 164°
2026-05-01 08:58 14.09791 100.70262 8897 ft 288 kts 164°
2026-05-01 08:59 14.07874 100.70857 8525 ft 287 kts 164°
2026-05-01 08:59 14.05966 100.71447 8175 ft 285 kts 164°
2026-05-01 08:59 14.04072 100.72032 7829 ft 283 kts 164°
2026-05-01 08:59 14.02194 100.72611 7512 ft 281 kts 164°
2026-05-01 09:00 14.00320 100.73187 7171 ft 279 kts 164°
2026-05-01 09:00 13.98486 100.73748 7027 ft 270 kts 164°
2026-05-01 09:00 13.96920 100.74262 6793 ft 256 kts 159°
2026-05-01 09:00 13.95637 100.75134 6394 ft 252 kts 134°
2026-05-01 09:01 13.94762 100.76656 5798 ft 252 kts 106°
2026-05-01 09:01 13.94721 100.78407 5480 ft 241 kts 78°
2026-05-01 09:01 13.95159 100.80019 5234 ft 227 kts 79°
2026-05-01 09:01 13.95077 100.81557 4936 ft 211 kts 111°
2026-05-01 09:02 13.94240 100.82711 4610 ft 198 kts 145°
2026-05-01 09:02 13.92961 100.83120 4298 ft 194 kts 181°
2026-05-01 09:02 13.91687 100.82671 3911 ft 199 kts 216°
2026-05-01 09:02 13.90584 100.81840 3630 ft 194 kts 205°
2026-05-01 09:03 13.89312 100.81408 3390 ft 190 kts 194°
2026-05-01 09:03 13.88045 100.81090 3118 ft 189 kts 194°
2026-05-01 09:03 13.86769 100.80760 2856 ft 188 kts 194°
2026-05-01 09:03 13.85500 100.80427 2614 ft 187 kts 194°
2026-05-01 09:04 13.84245 100.80095 2376 ft 185 kts 194°
2026-05-01 09:04 13.83003 100.79763 2319 ft 183 kts 194°
2026-05-01 09:04 13.81816 100.79444 2280 ft 169 kts 195°
2026-05-01 09:04 13.80700 100.79145 2213 ft 165 kts 194°
2026-05-01 09:05 13.79592 100.78852 2020 ft 163 kts 195°
2026-05-01 09:05 13.78526 100.78571 1824 ft 155 kts 193°
2026-05-01 09:05 13.77512 100.78302 1645 ft 151 kts 193°
2026-05-01 09:05 13.76493 100.78036 1440 ft 151 kts 193°
2026-05-01 09:06 13.75495 100.77774 1238 ft 145 kts 193°
2026-05-01 09:06 13.74836 100.77599 1115 ft 144 kts 193°
2026-05-01 09:06 13.73650 100.77286 909 ft 148 kts 194°
2026-05-01 09:06 13.72658 100.77021 750 ft 150 kts 194°
2026-05-01 09:07 13.71643 100.76756 542 ft 148 kts 194°
2026-05-01 09:07 13.70659 100.76496 359 ft 149 kts 194°
2026-05-01 09:07 13.69701 100.76242 163 ft 142 kts 195°
2026-05-01 09:07 13.68790 100.76001 37 ft 133 kts 195°
2026-05-01 09:08 13.67952 100.75780 17 ft 108 kts 194°
2026-05-01 09:08 13.67337 100.75617 19 ft 82 kts 194°
2026-05-01 09:08 13.66974 100.75521 19 ft 18 kts 194°
2026-05-01 09:08 13.66856 100.75487 19 ft 18 kts 198°
2026-05-01 09:09 13.66750 100.75426 20 ft 17 kts 219°
2026-05-01 09:09 13.66671 100.75353 19 ft 9 kts 224°
2026-05-01 09:09 13.66650 100.75298 19 ft 8 kts 285°
2026-05-01 09:09 13.66696 100.75272 18 ft 8 kts 354°
2026-05-01 09:10 13.66760 100.75280 18 ft 10 kts 12°
2026-05-01 09:10 13.66835 100.75298 18 ft 12 kts 13°
2026-05-01 09:10 13.66922 100.75319 18 ft 14 kts 13°
2026-05-01 09:10 13.67020 100.75347 18 ft 15 kts 15°
2026-05-01 09:11 13.67127 100.75377 19 ft 17 kts 15°
2026-05-01 09:11 13.67242 100.75407 19 ft 18 kts 14°
2026-05-01 09:11 13.67368 100.75442 19 ft 18 kts 14°
2026-05-01 09:11 13.67477 100.75467 19 ft 16 kts 13°
2026-05-01 09:12 13.67593 100.75495 19 ft 18 kts 13°
2026-05-01 09:12 13.67715 100.75524 19 ft 19 kts 15°
2026-05-01 09:12 13.67851 100.75563 19 ft 21 kts 15°
2026-05-01 09:12 13.67977 100.75597 19 ft 11 kts 15°
2026-05-01 09:13 13.68036 100.75614 19 ft 8 kts 15°
2026-05-01 09:13 13.68081 100.75612 18 ft 5 kts 341°
2026-05-01 09:13 13.68103 100.75587 19 ft 5 kts 301°
2026-05-01 09:13 13.68132 100.75559 19 ft 6 kts 332°
2026-05-01 09:14 13.68179 100.75555 19 ft 8 kts
2026-05-01 09:14 13.68230 100.75539 19 ft 8 kts 316°
2026-05-01 09:14 13.68257 100.75483 19 ft 10 kts 287°
2026-05-01 09:14 13.68276 100.75411 19 ft 11 kts 285°
2026-05-01 09:15 13.68297 100.75333 19 ft 11 kts 284°
2026-05-01 09:15 13.68314 100.75261 19 ft 9 kts 283°
2026-05-01 09:15 13.68328 100.75203 19 ft 8 kts 284°
2026-05-01 09:15 13.68340 100.75153 19 ft 7 kts 285°
2026-05-01 09:16 13.68352 100.75110 19 ft 7 kts 285°
2026-05-01 09:16 13.68366 100.75056 19 ft 9 kts 285°
2026-05-01 09:16 13.68383 100.74988 19 ft 11 kts 284°
2026-05-01 09:17 13.68418 100.74845 19 ft 10 kts 284°
2026-05-01 09:17 13.68433 100.74786 19 ft 5 kts 284°
2026-05-01 09:17 13.68417 100.74734 19 ft 5 kts 208°
2026-05-01 09:18 13.68377 100.74722 19 ft 3 kts 196°
2026-05-01 09:18 13.68355 100.74716 19 ft 1 kts 195°